Location: Stockholm
(59.3293°N, 18.0686°E)
Time: 04:27:08
(UTC+02:00)

ISS - Pass Details

Date: 30 March 2019
Orbit: 411 x 421 km, 51.6° (Epoch: 14 October)

Event Time Altitude Azimuth Distance (km) Brightness Sun altitude
Rises 19:00:48 0° 246° (WSW) 2,353 0.9 -5.3°
Reaches altitude 10° 19:03:11 10° 230° (SW) 1,488 -0.5 -5.6°
Maximum altitude 19:05:49 22° 178° (S) 963 -2.1 -5.9°
Drops below altitude 10° 19:08:28 10° 125° (SE) 1,485 -1.6 -6.2°
Enters shadow 19:08:57 - 121° (ESE) 1,648 -1.4 -6.3°
